This is the latest recevied weather packets stored in our database for station/object NO4D. If no packets are shown the sender has not sent any weather packets the latest 10 day(s).
| Time | Temp. | Humidity | Pressure | Rain* | Wind** | Luminosity | Snow |
|---|---|---|---|---|---|---|---|
| 1777209734 | 16.11° C | 99% | 1013.9 hPa | 0 mm | - | 150 W/m² | - |
| 1777209430 | 16.67° C | 99% | 1013.7 hPa | 0 mm | - | 138 W/m² | - |
| 1777209126 | 16.67° C | 99% | 1013.7 hPa | 0 mm | - | 208 W/m² | - |
| 1777208822 | 16.67° C | 99% | 1013.7 hPa | 0 mm | - | 162 W/m² | - |
| 1777208520 | 16.67° C | 99% | 1013.6 hPa | 0 mm | - | 186 W/m² | - |
| 1777208217 | 16.11° C | 99% | 1013.4 hPa | 0 mm | - | 173 W/m² | - |
| 1777207912 | 16.11° C | 99% | 1013.4 hPa | 0 mm | - | 161 W/m² | - |
| 1777207612 | 16.11° C | 99% | 1013.6 hPa | 0 mm | - | 132 W/m² | - |
| 1777207302 | 16.11° C | 99% | 1013.5 hPa | 0 mm | - | 95 W/m² | - |
| 1777207002 | 16.11° C | 99% | 1013.8 hPa | 0 mm | - | 107 W/m² | - |
| 1777206698 | 16.11° C | 99% | 1013.5 hPa | 0 mm | - | 115 W/m² | - |
| 1777206393 | 16.11° C | 99% | 1013.4 hPa | 0 mm | - | 117 W/m² | - |
| 1777206088 | 16.11° C | 99% | 1013.6 hPa | 0 mm | - | 118 W/m² | - |
| 1777205785 | 15.56° C | 99% | 1013.3 hPa | 0 mm | - | 81 W/m² | - |
| 1777205482 | 15.56° C | 99% | 1013.2 hPa | 0 mm | - | 80 W/m² | - |
| 1777205177 | 16.11° C | 99% | 1013.1 hPa | 0 mm | - | 83 W/m² | - |
| 1777204874 | 15.56° C | 99% | 1013.2 hPa | 0 mm | - | 73 W/m² | - |
| 1777204569 | 15.56° C | 99% | 1013.1 hPa | 0 mm | - | 72 W/m² | - |
| 1777204265 | 15.56° C | 99% | 1012.9 hPa | 0 mm | - | 66 W/m² | - |
| 1777203960 | 15.56° C | 99% | 1013 hPa | 0 mm | - | 57 W/m² | - |
| 1777203655 | 15.56° C | 99% | 1012.9 hPa | 0 mm | - | 58 W/m² | - |
| 1777203351 | 15.56° C | 99% | 1013 hPa | 0 mm | - | 49 W/m² | - |
| 1777203048 | 15.56° C | 99% | 1012.7 hPa | 0 mm | - | 37 W/m² | - |
| 1777202744 | 15.56° C | 99% | 1012.6 hPa | 0 mm | - | 30 W/m² | - |
| 1777202443 | 15.56° C | 99% | 1012.6 hPa | 0 mm | - | 19 W/m² | - |
* Rain latest hour (hover to see other rain measurements)
** Current wind speed in m/s (hover to see current wind gust speed)